This demonstration page uses our WeatherBlox Daily Observations layout. Learn more.

Left ArrowRight Arrow

44.89941, -97.11507

Hourly Observations for July 28, 2020

Temp ( °F °C ) Dew Point ( °F °C ) Humidity (%) Winds ( mph kmh ) Pressure ( in mb ) Visibility ( mi km ) Precip ( " mm )
12:53 am 00:53 Mostly Cloudy 70 21.1 62 16.7 76 76 SSW 9 15 29.92 1013 10 16 0.00 0.00
1:53 am 01:53 Partly Cloudy 69 20.6 62 16.7 78 78 S 9 15 29.91 1013 10 16 0.00 0.00
2:53 am 02:53 Mostly Cloudy 70 21.1 60 15.6 71 71 S 9 15 29.90 1012 10 16 0.00 0.00
3:53 am 03:53 Mostly Clear 69 20.6 60 15.6 73 73 SSW 12 19 29.88 1012 10 16 0.00 0.00
4:53 am 04:53 Clear 69 20.6 59 15 70 70 SSW 10 17 29.88 1012 10 16 0.00 0.00
5:53 am 05:53 Clear 67 19.4 60 15.6 79 79 SSW 9 15 29.88 1012 10 16 0.00 0.00
6:53 am 06:53 Sunny 66 18.9 60 15.6 81 81 SW 7 11 29.89 1012 10 16 0.00 0.00
7:53 am 07:53 Sunny 68 20 62 16.7 81 81 WSW 3 6 29.89 1012 10 16 0.00 0.00
8:53 am 08:53 Sunny 71 21.7 64 17.8 79 79 NNW 8 13 29.90 1012 10 16 0.00 0.00
9:53 am 09:53 Sunny 74 23.3 64 17.8 71 71 N 10 17 29.90 1013 10 16 0.00 0.00
10:53 am 10:53 Sunny 78 25.6 60 15.6 54 54 NE 9 15 29.91 1013 10 16 0.00 0.00
11:53 am 11:53 Sunny 79 26.1 59 15 50 50 ENE 10 17 29.91 1013 10 16 0.00 0.00
12:53 pm 12:53 Sunny 80 26.7 59 15 49 49 N 12 19 29.91 1013 10 16 0.00 0.00
1:53 pm 13:53 Sunny 80 26.7 58 14.4 47 47 VRB 7 11 29.91 1013 10 16 0.00 0.00
2:53 pm 14:53 Sunny 81 27.2 59 15 47 47 ENE 7 11 29.90 1013 10 16 0.00 0.00
3:53 pm 15:53 Sunny 82 27.8 58 14.4 44 44 VRB 6 9 29.90 1013 10 16 0.00 0.00
4:53 pm 16:53 Sunny 82 27.8 59 15 46 46 Calm 29.89 1012 10 16 0.00 0.00
5:53 pm 17:53 Sunny 81 27.2 58 14.4 45 45 ENE 3 6 29.88 1012 10 16 0.00 0.00
7:53 pm 19:53 Sunny 78 25.6 59 15 52 52 NE 5 7 29.88 1012 10 16 0.00 0.00
8:53 pm 20:53 Sunny 75 23.9 58 14.4 55 55 Calm 29.89 1012 10 16 0.00 0.00
9:53 pm 21:53 Clear 70 21.1 59 15 68 68 Calm 29.91 1013 10 16 0.00 0.00
10:53 pm 22:53 Clear 70 21.1 59 15 68 68 Calm 29.91 1013 10 16 0.00 0.00
11:53 pm 23:53 Clear 67 19.4 59 15 76 76 Calm 29.92 1013 10 16 0.00 0.00

Powered by AerisWeather